Regional Weather Roundup
Issued by NWS Charleston, SC

Current Version | Previous Version | Graphics & Text | Print | Product List | Glossary On
Versions: 1 2 3 4 5 6 7 8 9 10 11 12 13 14 15 16 17 18 19 20 21 22 23 24 25 26 27 28 29 30 31 32 33 34 35 36 37 38 39 40 41 42 43 44 45 46 47 48 49 50
000
ASUS42 KCHS 070527
RWRCHS

REGIONAL WEATHER ROUNDUP
NATIONAL WEATHER SERVICE CHARLESTON SC
100 AM EDT TUE JUL 07 2015

NOTE: "FAIR" INDICATES FEW OR NO CLOUDS BELOW 12,000 FEET WITH NO
SIGNIFICANT WEATHER AND/OR OBSTRUCTIONS TO VISIBILITY.

NOT ALL STATIONS ARE QUALITY CONTROLLED BY THE NATIONAL
WEATHER SERVICE. USE DATA WITH CAUTION...ESPECIALLY
DEWPOINT OBSERVATIONS.

SCZ027-030-031-034>040-042>050-070600-
...SOUTHEAST SOUTH CAROLINA...

CITY           SKY/WX    TMP DP  RH WIND       PRES   REMARKS
N CHARLESTON   CLEAR     76  72  87 CALM      30.10F
WATERFRONT PAR   N/A     79  75  87 VRB2      30.07F
MOUNT PLEASANT LGT RAIN  75  73  94 CALM      30.10F
JOHNS ISLAND   FAIR      79  75  89 SW5       30.10S
PINOPOLIS      NOT AVBL
MONCKS CORNER  FAIR      75  72  88 CALM      30.09F
SUMMERVILLE    FAIR      73  73 100 CALM      30.10F
BEAUFORT MCAS  MOCLDY    77  72  84 CALM      30.10F
BEAUFORT ARPT  FAIR      79  73  83 S3        30.09F
HILTON HEAD IS PTCLDY    79  73  83 S7        30.11S
WALTERBORO     PTCLDY    73  70  88 SW5       30.11S
ALLENDALE      FAIR      75  72  88 CALM      30.09F

...SOUTHERN MIDLANDS AND PEE DEE...

CITY           SKY/WX    TMP DP  RH WIND       PRES   REMARKS
GEORGETOWN     NOT AVBL
KINGSTREE      NOT AVBL
ORANGEBURG     CLEAR     75  72  90 CALM      30.10S
BARNWELL       FAIR      75  73  94 S5        30.10F
AIKEN          NOT AVBL
MANNING        FAIR      75  72  88 CALM      30.10S
COLUMBIA       CLEAR     77  70  79 CALM      30.08S
SUMTER         CLEAR     76  72  88 S6        30.08R
FLORENCE       PTCLDY    76  73  91 S6        30.09S
MYRTLE BEACH   CLEAR     77  70  78 SW6         N/A
N MYRTLE BEACH CLEAR     78  72  81 SW6       30.10S

$$

GAZ063-065-086>088-099>101-113>116-118-119-134>141-150-070600-
...SOUTHEAST GEORGIA...

CITY           SKY/WX    TMP DP  RH WIND       PRES   REMARKS
SAVANNAH ARPT  MOCLDY    75  71  87 SW3       30.10F
HUNTER AAF     PTCLDY    74  74 100 W3        30.08F
FORT STEWART   PTCLDY    74  71  89 S3        30.08F
STATESBORO     NOT AVBL
SYLVANIA       MOCLDY    76  74  94 CALM      30.11S
CLAXTON        CLOUDY    77  73  88 CALM      30.10F

...CSRA...CENTRAL AND FAR SOUTHEAST GEORGIA...

CITY           SKY/WX    TMP DP  RH WIND       PRES   REMARKS
THOMSON        CLEAR     74  74  98 CALM      30.15R
AUGUSTA-BUSH   CLEAR     74  70  87 E3        30.08S
AUGUSTA-DANIEL CLEAR     77  70  79 SW3       30.11R
SWAINSBORO     FAIR     N/A N/A N/A CALM      30.11S
VIDALIA        MOCLDY    73  70  88 CALM      30.11S
EASTMAN        FAIR      72  72 100 CALM      30.13S
HAZLEHURST     FAIR      75  75  99 CALM      30.10S
ALMA           PTCLDY    73  71  93 CALM      30.10F
WAYCROSS       PTCLDY    78  76  94 SW5       30.11S
JESUP          FAIR      77  73  88 CALM      30.11S
BAXLEY         FAIR      75  72  88 CALM      30.10S
BRUNSWICK      MOCLDY    73  72  94 SW7       30.11S
SAINT SIMONS   MOCLDY    77  72  84 SW9       30.10F

$$

SCZ027-028-034-036>038-045-046-048>050-GAZ119-141-070600-
...LAKE AND SUPPLEMENTAL COASTAL OBSERVATIONS...

STATION/POSITION TIME  TEMP    WIND        PRES    WAVE   SWELL
                       AIR SEA DIR/SP/G            HT/PER HT/PER/DIR
                 (UTC) (F)     (DEG/KT/KT) (MB)    (FT/S) (FT/S/D)
UPR LAKE MARION  NOT AVBL
WINYAH BAY       0445   75     270/  2     1019.0R
LAKE MURRAY      0400   81     220/  6/  8 1017.9S
ACE BASIN NERRS  NOT AVBL
FORT PULASKI     0500   78 83  210/  5/  6 1019.8F
SAPELO ISLAND    0500   78     230/  5     1019.0F

$$

ANZ835-935-AMZ111-154-330-350-352-354-370-450-454-472-070600-
...C-MAN AND BUOY OBSERVATIONS...

STATION/POSITION TIME  TEMP    WIND        PRES    WAVE   SWELL
                       AIR SEA DIR/SP/G            HT/PER HT/PER/DIR
                 (UTC) (F)     (DEG/KT/KT) (MB)    (FT/S) (FT/S/D)
BUOY 41004       0450   81 83  210/ 14/ 16 1018.7F   3/ 8   2/ 8
BUOY 41008       0450   78 78  200/  8/  8 1019.3F   2/ 9   2/110/ 9
FOLLY BEACH CMAN 0500   80     220/ 13/ 16 1019.2F
CAPERS NEARSHORE 0408   81     230/ 14/ 17 1019.6R
FRIPP NEARSHORE  0400   81     210/ 16/ 17 1019.1F


STATION/POSITION TIME  TEMP    WIND        PRES    WAVE   SWELL
                       AIR SEA DIR/SP/G            HT/PER HT/PER/DIR
                 (UTC) (F)     (DEG/KT/KT) (MB)    (FT/S) (FT/S/D)
5E ST. MARYS GA  0421      78                N/A     2/ 8
FRYING PAN BUOY  0450   81 80  210/ 12/ 14 1019.7F   3/ 8   2/120/ 8
BUOY 41025       0450   81 81  200/ 16/ 17 1019.5F   3/ 4   2/110/10
CAPE LOOKOUT NC  0500   79     210/  7/  9 1019.4F
BUOY 41002       0450   82 80  200/ 12/ 14 1021.7F   4/ 8   3/140/ 8
BUOY 41010       0420   83 83  140/  6/  8 1021.2F
ST AUGUSTINE FL  0500   72 71  240/  6/  7 1020.6F


$$


USA.gov is the U.S. government's official web portal to all federal, state and local government web resources and services.